User: anonymous   Login
Location: Unspecified
(0.0000°N, 0.0000°E)
Time: 22:17:30
(UTC+00:00)
Language:

STARLINK-30257 - Orbit

View from above orbital plane
View from above orbital plane
View from above satellite
View from above satellite

Ground track
Ground track

The orbit is defined by the following mean orbital elements,

1 57526U          26145.41026374 +.00000000 +00000-0 -20263-4 0 00001
2 57526  43.0017 288.4374 0001329 270.8392  89.2308 15.27584609    01
Epoch (UTC): 25 May 2026 09:50:46
Eccentricity: 0.0001329
inclination: 43.0017°
perigee height: 482 km
apogee height: 484 km
right ascension of ascending node: 288.4374°
argument of perigee: 270.8392°
revolutions per day: 15.27584609
mean anomaly at epoch: 89.2308°

The dashed part of the orbit path shows where the satellite is in the earth's shadow,  

DLR